Volver al catálogo

STARLINK-36344

ActivoComunicacionesSSO
NORAD 67710·PAYLOAD·🇺🇸 United States

Lanzado Feb 7, 2026 desde Vandenberg Space Force Base

Loading…

Próximos Pases (próximas 24 horas)

TLE

ActualizadoSource: CelesTrak SupGP

Época: Sep 14, 2026, 22:55 UTC

1 67710C 26025T   26257.95534722 -.00200320  00000+0 -62104-2 0  2575
2 67710  97.2850   7.9437 0001092  96.7002   8.4641 15.33581729    18

Sigue STARLINK-36344 en tiempo real con AllMySat

Download on the App Store